This is the latest recevied weather packets stored in our database for station/object KF4CQ. If no packets are shown the sender has not sent any weather packets the latest 10 day(s).
| Time | Temp. | Humidity | Pressure | Rain* | Wind** | Luminosity | Snow |
|---|---|---|---|---|---|---|---|
| 1778109105 | 30.56° C | 67% | 1015.9 hPa | 0 mm | - | 23 W/m² | - |
| 1778108801 | 30.56° C | 67% | 1015.8 hPa | 0 mm | - | 28 W/m² | - |
| 1778108498 | 31.11° C | 65% | 1015.9 hPa | 0 mm | - | 32 W/m² | - |
| 1778108195 | 31.11° C | 65% | 1015.7 hPa | 0 mm | - | 32 W/m² | - |
| 1778107892 | 31.67° C | 64% | 1015.8 hPa | 0 mm | - | 36 W/m² | - |
| 1778107588 | 31.67° C | 63% | 1015.7 hPa | 0 mm | - | 39 W/m² | - |
| 1778107285 | 31.67° C | 63% | 1015.6 hPa | 0 mm | - | 50 W/m² | - |
| 1778106981 | 32.78° C | 59% | 1015.7 hPa | 0 mm | - | 53 W/m² | - |
| 1778106677 | 32.78° C | 48% | 1015.7 hPa | 0 mm | - | 54 W/m² | - |
| 1778106374 | 32.78° C | 48% | 1015.6 hPa | 0 mm | - | 42 W/m² | - |
| 1778106070 | 33.33° C | 47% | 1015.5 hPa | 0 mm | - | 40 W/m² | - |
| 1778105768 | 32.78° C | 48% | 1015.6 hPa | 0 mm | - | 49 W/m² | - |
| 1778105466 | 32.78° C | 48% | 1015.5 hPa | 0 mm | - | 43 W/m² | - |
| 1778105163 | 33.33° C | 47% | 1015.6 hPa | 0 mm | - | 50 W/m² | - |
| 1778104857 | 33.33° C | 47% | 1015.6 hPa | 0 mm | - | 73 W/m² | - |
| 1778104555 | 33.89° C | 45% | 1015.8 hPa | 0 mm | - | 60 W/m² | - |
| 1778104250 | 33.89° C | 43% | 1015.8 hPa | 0 mm | - | 60 W/m² | - |
| 1778103947 | 33.33° C | 44% | 1015.8 hPa | 0 mm | - | 63 W/m² | - |
| 1778103644 | 33.33° C | 45% | 1015.8 hPa | 0 mm | - | 50 W/m² | - |
| 1778103343 | 33.33° C | 47% | 1015.9 hPa | 0 mm | - | 65 W/m² | - |
| 1778103040 | 34.44° C | 45% | 1015.8 hPa | 0 mm | - | 79 W/m² | - |
| 1778102736 | 33.89° C | 45% | 1015.9 hPa | 0 mm | - | 79 W/m² | - |
| 1778102431 | 33.89° C | 46% | 1015.8 hPa | 0 mm | - | 133 W/m² | - |
| 1778102127 | 33.33° C | 47% | 1015.9 hPa | 0 mm | - | 209 W/m² | - |
| 1778101825 | 33.33° C | 47% | 1015.8 hPa | 0 mm | - | 369 W/m² | - |
* Rain latest hour (hover to see other rain measurements)
** Current wind speed in m/s (hover to see current wind gust speed)